Location: Unspecified
(0.0000°N, 0.0000°E)
Time: 08:20:55
(UTC+00:00)

Hubble Space Telescope - Visible Passes

Search period start: 14 December 2017 00:00
Search period end: 24 December 2017 00:00
Orbit: 537 x 541 km, 28.5° (Epoch: 13 December)

Date Brightness Start Highest point End Pass type
(mag) Time Alt. Az. Time Alt. Az. Time Alt. Az.
20 Dec 2.5 19:43:13 10° NW 19:45:01 24° NW 19:45:01 24° NW visible
21 Dec 0.8 19:32:52 10° NW 19:36:38 67° NNW 19:36:38 67° NNW visible
22 Dec 0.8 19:22:38 10° WNW 19:26:47 77° SSW 19:28:25 35° SE visible
23 Dec 1.5 19:12:30 10° WNW 19:16:32 52° SSW 19:20:15 12° SE visible
